East Blacksea — T2ZH3 — position and weather

sailwx.info

Track history (hours):
 
Tides and Currents Weather Stations Pressure Air Temp Water Temp Dewpoint Dewpoint Depression Visibility Wind Speed Wind Dir Waves Ship Positions

East Blacksea

Last reported at 2014-Jul-27 19:28 UTC. Time now 2014-Jul-28 10:24 UTC.
Position N 37°16' E 023°56'.

Length 69 m; draft 4 m.

Type: Cargo ship. MMSI: 572341210.

Date/timePositionNaut miles runAvg speedWind from/ knotsBaromVisibWave heightAir tempDewpointWater temp
2014-Jul-27 19:28N 37°16' E 023°56'7 8.1
2014-Jul-27 18:33N 37°10' E 023°51'8 8.4
2014-Jul-27 17:33N 37°04' E 023°45'9 8.6
2014-Jul-27 16:32N 36°56' E 023°38'27 8.7
2014-Jul-27 13:25N 36°34' E 023°20'394 8.1
2014-Jul-25 12:33N 35°50' E 015°15'11 7.9
2014-Jul-25 11:07N 35°45' E 015°02'4 7.5
2014-Jul-25 10:33N 35°44' E 014°57'10 7.7
2014-Jul-25 09:18N 35°40' E 014°46'14 8.0
2014-Jul-25 07:30N 35°34' E 014°30'28 8.5
2014-Jul-25 04:11N 35°23' E 013°58'17 8.3
2014-Jul-25 02:05N 35°16' E 013°39'4 8.0
2014-Jul-25 01:33N 35°14' E 013°34'10 8.1
2014-Jul-25 00:21N 35°10' E 013°23'6 8.1
2014-Jul-24 23:33N 35°08' E 013°16'8 8.4
2014-Jul-24 22:33N 35°04' E 013°07'8 8.3
2014-Jul-24 21:32N 35°00' E 012°57'8 8.2
2014-Jul-24 20:33N 34°59' E 012°48'8 8.0
2014-Jul-24 19:33N 34°57' E 012°38'9 8.1
2014-Jul-24 18:27N 34°53' E 012°28'9 8.2
2014-Jul-24 17:19N 34°50' E 012°18'7 8.2
2014-Jul-24 16:26N 34°47' E 012°10'  
2014-Jul-20 20:32N 34°41' E 010°49'0 0.0
2014-Jul-20 18:29N 34°41' E 010°49'5 0.2
2014-Jul-19 17:04N 34°36' E 010°50'5 9.6
2014-Jul-19 16:33N 34°32' E 010°50'8 7.6
2014-Jul-19 15:29N 34°27' E 010°58'9 9.3
2014-Jul-19 14:33N 34°30' E 011°08'118 8.9
2014-Jul-19 01:23N 35°31' E 013°11'8 9.2
2014-Jul-19 00:33N 35°36' E 013°17'9 9.1
2014-Jul-18 23:33N 35°43' E 013°25'9 9.4
2014-Jul-18 22:33N 35°50' E 013°32'9 9.0
2014-Jul-18 21:33N 35°56' E 013°40'9 8.8
2014-Jul-18 20:32N 36°03' E 013°47'10 8.6
2014-Jul-18 19:26N 36°10' E 013°55'8 8.8
2014-Jul-18 18:33N 36°15' E 014°03'9 8.9
2014-Jul-18 17:31N 36°20' E 014°12'8 8.7
2014-Jul-18 16:33N 36°25' E 014°20'9 8.7
2014-Jul-18 15:33N 36°30' E 014°29'9 8.7
2014-Jul-18 14:33N 36°35' E 014°38'  
Track history (hours):
 
Tides and Currents Weather Stations Pressure Air Temp Water Temp Dewpoint Dewpoint Depression Visibility Wind Speed Wind Dir Waves Ship Positions

East Blacksea

Last reported at 2014-Jul-27 19:28 UTC. Time now 2014-Jul-28 10:24 UTC.
Position N 37°16' E 023°56'.

Length 69 m; draft 4 m.

Type: Cargo ship. MMSI: 572341210.

Date/timePositionNaut miles runAvg speedWind from/ knotsBaromVisibWave heightAir tempDewpointWater temp
2014-Jul-27 19:28N 37°16' E 023°56'7 8.1
2014-Jul-27 18:33N 37°10' E 023°51'8 8.4
2014-Jul-27 17:33N 37°04' E 023°45'9 8.6
2014-Jul-27 16:32N 36°56' E 023°38'27 8.7
2014-Jul-27 13:25N 36°34' E 023°20'394 8.1
2014-Jul-25 12:33N 35°50' E 015°15'11 7.9
2014-Jul-25 11:07N 35°45' E 015°02'4 7.5
2014-Jul-25 10:33N 35°44' E 014°57'10 7.7
2014-Jul-25 09:18N 35°40' E 014°46'14 8.0
2014-Jul-25 07:30N 35°34' E 014°30'28 8.5
2014-Jul-25 04:11N 35°23' E 013°58'17 8.3
2014-Jul-25 02:05N 35°16' E 013°39'4 8.0
2014-Jul-25 01:33N 35°14' E 013°34'10 8.1
2014-Jul-25 00:21N 35°10' E 013°23'6 8.1
2014-Jul-24 23:33N 35°08' E 013°16'8 8.4
2014-Jul-24 22:33N 35°04' E 013°07'8 8.3
2014-Jul-24 21:32N 35°00' E 012°57'8 8.2
2014-Jul-24 20:33N 34°59' E 012°48'8 8.0
2014-Jul-24 19:33N 34°57' E 012°38'9 8.1
2014-Jul-24 18:27N 34°53' E 012°28'9 8.2
2014-Jul-24 17:19N 34°50' E 012°18'7 8.2
2014-Jul-24 16:26N 34°47' E 012°10'  
2014-Jul-20 20:32N 34°41' E 010°49'0 0.0
2014-Jul-20 18:29N 34°41' E 010°49'5 0.2
2014-Jul-19 17:04N 34°36' E 010°50'5 9.6
2014-Jul-19 16:33N 34°32' E 010°50'8 7.6
2014-Jul-19 15:29N 34°27' E 010°58'9 9.3
2014-Jul-19 14:33N 34°30' E 011°08'118 8.9
2014-Jul-19 01:23N 35°31' E 013°11'8 9.2
2014-Jul-19 00:33N 35°36' E 013°17'9 9.1
2014-Jul-18 23:33N 35°43' E 013°25'9 9.4
2014-Jul-18 22:33N 35°50' E 013°32'9 9.0
2014-Jul-18 21:33N 35°56' E 013°40'9 8.8
2014-Jul-18 20:32N 36°03' E 013°47'10 8.6
2014-Jul-18 19:26N 36°10' E 013°55'8 8.8
2014-Jul-18 18:33N 36°15' E 014°03'9 8.9
2014-Jul-18 17:31N 36°20' E 014°12'8 8.7
2014-Jul-18 16:33N 36°25' E 014°20'9 8.7
2014-Jul-18 15:33N 36°30' E 014°29'9 8.7
2014-Jul-18 14:33N 36°35' E 014°38'  

Dump ship's entire track history